GW2440 Weather Reports


Display with metric or nautical units.
time (UTC)temp
F
wind
direction
speed
MPH
gust
MPH
rain 1hr
in
rain 24hr
in
rain mn
in
humidity
%
barometer
mb
20260903135334 77 45 3.0 3.0 0.00 0.07 0.07 99 1017.5
20260903134833 77 58 2.0 3.0 0.00 0.07 0.07 99 1017.2
20260903134328 77 62 5.0 6.0 0.00 0.07 0.07 99 1017.2
20260903133825 78 69 2.0 2.0 0.00 0.07 0.07 99 1016.9
20260903133321 78 53 1.0 2.0 0.00 0.07 0.07 99 1017.2
20260903132816 78 37 2.0 2.0 0.07 0.07 0.07 99 1017.2
20260903132312 77 57 1.0 2.0 0.07 0.07 0.07 99 1017.2
20260903131807 78 25 2.0 2.0 0.00 0.06 0.06 99 1016.9
20260903131306 77 79 2.0 2.0 0.00 0.06 0.06 99 1017.2
20260903130801 77 87 2.0 3.0 0.00 0.06 0.06 99 1017.2
20260903130256 77 63 2.0 2.0 0.00 0.06 0.06 99 1016.9
20260903125754 77 43 2.0 2.0 0.00 0.06 0.06 99 1016.9
20260903125250 77 66 1.0 1.0 0.00 0.06 0.06 99 1016.9
20260903124749 78 17 5.0 6.0 0.00 0.06 0.06 99 1016.9
20260903124245 78 44 2.0 2.0 0.00 0.06 0.06 99 1016.9
20260903123743 78 30 5.0 5.0 0.05 0.06 0.06 99 1016.9
20260903123243 78 48 1.0 2.0 0.05 0.06 0.06 99 1016.9
20260903122741 78 56 3.0 5.0 0.12 0.06 0.06 99 1017.2
20260903122236 78 114 0.0 0.0 0.19 0.05 0.05 99 1016.9
20260903121734 78 45 3.0 5.0 0.24 0.04 0.04 99 1017.2
20260903121231 78 39 3.0 3.0 0.12 0.02 0.02 99 1016.9
20260903120731 77 58 2.0 2.0 0.00 0.00 0.00 99 1016.9
20260903120224 77 58 2.0 2.0 0.00 0.00 0.00 99 1016.5
20260903115723 77 50 0.0 0.0 0.00 0.00 0.00 99 1016.9
20260903115218 77 38 0.0 0.0 0.00 0.00 0.00 99 1016.9
20260903114712 77 115 0.0 0.0 0.00 0.00 0.00 99 1016.9
20260903114208 77 145 0.0 0.0 0.00 0.00 0.00 99 1016.9
20260903113703 77 356 0.0 0.0 0.00 0.00 0.00 99 1016.5
20260903113159 77 18 0.0 0.0 0.00 0.00 0.00 99 1016.2
20260903112655 77 15 0.0 0.0 0.00 0.00 0.00 99 1016.5
20260903112150 77 114 0.0 0.0 0.00 0.00 0.00 99 1016.5
20260903111649 77 189 0.0 0.0 0.00 0.00 0.00 99 1016.2
20260903111144 77 358 0.0 0.0 0.00 0.00 0.00 99 1016.2
20260903110641 77 346 0.0 0.0 0.00 0.00 0.00 99 1016.2
20260903110136 77 97 0.0 0.0 0.00 0.00 0.00 99 1016.2
20260903105630 77 97 0.0 0.0 0.00 0.00 0.00 99 1015.8
20260903105120 77 97 0.0 0.0 0.00 0.00 0.00 99 1015.8
20260903104619 77 97 0.0 0.0 0.00 0.00 0.00 99 1016.2
20260903104115 77 97 0.0 0.0 0.00 0.00 0.00 99 1015.8
20260903103611 77 97 0.0 0.0 0.00 0.00 0.00 99 1015.5
20260903103107 77 97 0.0 0.0 0.00 0.00 0.00 99 1015.5
20260903102602 77 97 0.0 0.0 0.00 0.00 0.00 99 1015.8
20260903102101 77 97 0.0 0.0 0.00 0.00 0.00 99 1015.5
20260903101555 77 97 0.0 0.0 0.00 0.00 0.00 99 1015.5
20260903101051 77 97 0.0 0.0 0.00 0.00 0.00 99 1015.5
20260903100551 77 97 0.0 0.0 0.00 0.00 0.00 99 1015.5
20260903100050 77 97 0.0 0.0 0.00 0.00 0.00 99 1015.5
20260903095548 77 97 0.0 0.0 0.00 0.00 0.00 99 1015.5
20260903095043 77 97 0.0 0.0 0.00 0.00 0.00 99 1015.2
20260903094542 77 97 0.0 0.0 0.00 0.00 0.00 99 1015.2
20260903094038 77 97 0.0 0.0 0.00 0.00 0.00 99 1015.2
20260903093533 77 97 0.0 0.0 0.00 0.00 0.00 99 1015.5
20260903093029 77 97 0.0 0.0 0.00 0.00 0.00 99 1015.2
20260903092522 77 96 0.0 0.0 0.00 0.00 0.00 99 1015.5
20260903092016 78 116 0.0 0.0 0.00 0.00 0.00 99 1015.5
20260903091514 78 112 0.0 0.0 0.00 0.00 0.00 99 1015.2
20260903091010 77 133 0.0 0.0 0.00 0.00 0.00 99 1015.2
20260903090506 77 146 0.0 0.0 0.00 0.00 0.00 99 1015.2
20260903090003 77 147 0.0 0.0 0.00 0.00 0.00 99 1015.5
20260903085502 77 156 0.0 0.0 0.00 0.00 0.00 99 1015.2
20260903084958 77 156 0.0 0.0 0.00 0.00 0.00 99 1015.5
20260903084455 77 78 0.0 0.0 0.00 0.00 0.00 99 1015.2
20260903083950 78 83 0.0 0.0 0.00 0.00 0.00 99 1015.2
20260903083447 78 33 0.0 0.0 0.00 0.00 0.00 99 1015.2
20260903082946 77 33 0.0 0.0 0.00 0.00 0.00 99 1015.2
20260903082441 77 33 0.0 0.0 0.00 0.00 0.00 99 1015.2
20260903081935 78 33 0.0 0.0 0.00 0.00 0.00 99 1015.2
20260903081431 78 32 0.0 0.0 0.00 0.00 0.00 99 1015.2
20260903080927 78 33 0.0 0.0 0.00 0.00 0.00 99 1015.2
20260903080423 78 32 0.0 0.0 0.00 0.00 0.00 99 1015.2
20260903075919 78 32 0.0 0.0 0.00 0.00 0.00 99 1014.8
20260903075415 78 47 0.0 0.0 0.00 0.00 0.00 99 1015.2
20260903074915 78 30 0.0 0.0 0.00 0.00 0.00 99 1014.8
20260903074408 78 78 0.0 0.0 0.00 0.00 0.00 99 1015.2
20260903073904 78 51 1.0 2.0 0.00 0.00 0.00 99 1015.2
20260903073359 78 38 1.0 1.0 0.00 0.00 0.00 99 1015.2
20260903072855 78 24 2.0 2.0 0.00 0.00 0.00 99 1015.5
20260903072351 78 45 2.0 2.0 0.00 0.00 0.00 99 1015.5
20260903071848 78 59 0.0 0.0 0.00 0.00 0.00 99 1015.2
20260903071344 78 38 0.0 0.0 0.00 0.00 0.00 99 1015.2
20260903070839 77 51 0.0 0.0 0.00 0.00 0.00 99 1015.5
20260903070333 77 107 0.0 0.0 0.00 0.00 0.00 99 1015.5
20260903065828 77 107 0.0 0.0 0.00 0.00 0.00 99 1015.5
20260903065327 77 107 0.0 0.0 0.00 0.00 0.00 99 1015.8
20260903064826 77 107 0.0 0.0 0.00 0.00 0.00 99 1015.8
20260903064316 77 68 0.0 0.0 0.00 0.00 0.00 99 1015.8
20260903063807 77 49 0.0 0.0 0.00 0.00 0.00 99 1015.5
20260903063307 77 57 0.0 0.0 0.00 0.00 0.00 99 1015.8
20260903062803 77 62 0.0 0.0 0.00 0.00 0.00 99 1015.8
20260903062301 77 88 0.0 0.0 0.00 0.00 0.00 99 1016.2
20260903061758 77 41 3.0 3.0 0.00 0.00 0.00 99 1016.2
20260903061251 77 40 3.0 3.0 0.00 0.00 0.00 99 1016.2
20260903060747 77 61 0.0 1.0 0.00 0.00 0.00 99 1016.2
20260903060241 77 61 0.0 0.0 0.00 0.00 0.00 99 1016.2
20260903055738 77 46 0.0 0.0 0.00 0.00 0.00 99 1016.2
20260903055237 77 0 0.0 0.0 0.00 0.00 0.00 99 1016.2
20260903054732 77 25 2.0 2.0 0.00 0.00 0.00 99 1016.2
20260903054227 77 36 2.0 3.0 0.00 0.00 0.00 99 1016.2
20260903053724 77 48 1.0 1.0 0.00 0.00 0.00 99 1016.2
20260903053224 77 63 0.0 0.0 0.00 0.00 0.00 99 1016.5
20260903052720 77 57 0.0 0.0 0.00 0.00 0.00 99 1016.5
20260903052215 77 46 3.0 3.0 0.00 0.00 0.00 99 1016.5
20260903051710 77 62 0.0 0.0 0.00 0.00 0.00 99 1016.9
20260903051206 77 36 0.0 0.0 0.00 0.00 0.00 99 1016.9
20260903050701 77 36 0.0 0.0 0.00 0.00 0.00 99 1016.5
20260903050200 77 38 0.0 0.0 0.00 0.00 0.00 99 1016.9
20260903045655 78 48 0.0 0.0 0.00 0.00 0.00 99 1016.9
20260903045151 78 63 0.0 0.0 0.00 0.00 0.00 99 1016.9
20260903044647 78 61 0.0 0.0 0.00 0.00 0.00 99 1016.9
20260903044143 78 42 0.0 0.0 0.00 0.00 0.00 99 1016.9
20260903043640 78 33 0.0 0.0 0.00 0.00 0.00 99 1017.2
20260903043138 78 39 0.0 0.0 0.00 0.00 0.00 99 1017.2
20260903042638 78 42 0.0 0.0 0.00 0.00 0.00 99 1016.9
20260903042133 78 46 0.0 0.0 0.00 0.00 0.00 99 1016.9
20260903041630 78 55 1.0 1.0 0.00 0.00 0.00 99 1017.2
20260903041125 78 65 0.0 0.0 0.00 0.00 0.00 99 1016.9
20260903040624 78 53 0.0 0.0 0.00 0.00 0.00 99 1017.2
20260903040121 78 54 2.0 2.0 0.00 0.00 0.00 99 1016.9
20260903035616 78 97 0.0 0.0 0.00 0.05 0.05 99 1016.9
20260903035112 78 78 0.0 0.0 0.00 0.05 0.05 99 1017.2
20260903034606 78 82 0.0 0.0 0.00 0.05 0.05 99 1017.2
20260903034101 78 156 0.0 0.0 0.00 0.05 0.05 99 1016.9
20260903033557 78 66 0.0 1.0 0.00 0.05 0.05 99 1017.2
20260903033051 78 88 3.0 3.0 0.00 0.05 0.05 99 1017.2
20260903032547 78 67 1.0 2.0 0.00 0.05 0.05 99 1017.2
20260903032042 78 131 0.0 0.0 0.00 0.05 0.05 99 1017.2
20260903031542 78 55 1.0 2.0 0.00 0.05 0.05 99 1017.2
20260903031037 79 101 0.0 1.0 0.00 0.05 0.05 99 1017.2
20260903030532 79 72 1.0 2.0 0.00 0.05 0.05 99 1017.2
20260903030029 79 63 5.0 6.0 0.00 0.05 0.05 99 1017.5
20260903025524 79 46 5.0 5.0 0.00 0.05 0.05 99 1017.5
20260903025020 79 52 3.0 3.0 0.00 0.05 0.05 99 1017.2
20260903024519 79 43 2.0 2.0 0.00 0.05 0.05 99 1016.9
20260903024013 79 64 4.0 5.0 0.00 0.05 0.05 99 1016.9
20260903023509 79 50 4.0 5.0 0.00 0.05 0.05 99 1016.9
20260903023004 79 45 4.0 5.0 0.00 0.05 0.05 99 1016.9
20260903022503 79 31 3.0 3.0 0.00 0.05 0.05 99 1016.9
20260903022001 79 66 3.0 3.0 0.00 0.05 0.05 99 1016.9
20260903021457 79 43 3.0 5.0 0.00 0.05 0.05 99 1016.9
20260903020952 79 68 3.0 5.0 0.00 0.05 0.05 99 1017.2
20260903020448 79 37 4.0 5.0 0.00 0.05 0.05 99 1016.9
20260903015942 79 33 3.0 5.0 0.00 0.05 0.05 99 1017.2
20260903015438 79 65 3.0 3.0 0.00 0.05 0.05 98 1017.5
20260903014933 79 56 5.0 6.0 0.00 0.05 0.05 97 1017.5
20260903014432 80 64 7.0 8.0 0.00 0.05 0.05 97 1017.2
20260903013927 80 73 2.0 2.0 0.00 0.05 0.05 97 1016.9
20260903013427 80 54 5.0 5.0 0.00 0.05 0.05 98 1016.9
20260903012926 80 46 9.0 11.0 0.00 0.05 0.05 98 1017.2
20260903012420 80 45 2.0 3.0 0.00 0.05 0.05 98 1016.9
20260903011919 80 51 4.0 5.0 0.00 0.05 0.05 98 1016.9
20260903011414 80 41 4.0 5.0 0.00 0.05 0.05 99 1016.9
20260903010909 80 53 3.0 3.0 0.00 0.05 0.05 98 1016.5
20260903010405 80 51 5.0 6.0 0.00 0.05 0.05 98 1016.5
20260903005902 80 93 4.0 5.0 0.00 0.05 0.05 98 1016.9
20260903005358 80 48 4.0 5.0 0.00 0.05 0.05 98 1016.9
20260903004854 80 25 5.0 6.0 0.00 0.05 0.05 98 1016.9
20260903004350 80 33 3.0 3.0 0.00 0.05 0.05 98 1016.9
20260903003844 80 29 3.0 3.0 0.00 0.05 0.05 98 1016.9
20260903003339 80 47 2.0 3.0 0.00 0.05 0.05 98 1016.9
20260903002838 80 53 4.0 5.0 0.00 0.05 0.05 97 1016.9
20260903002333 80 61 1.0 3.0 0.00 0.05 0.05 97 1016.9
20260903001828 80 50 4.0 5.0 0.00 0.05 0.05 98 1016.9
20260903001324 80 53 5.0 6.0 0.00 0.05 0.05 97 1016.5
20260903000823 81 52 3.0 3.0 0.00 0.05 0.05 97 1016.9
20260903000318 81 51 2.0 2.0 0.00 0.05 0.05 98 1016.5
20260902235816 81 46 1.0 1.0 0.00 0.05 0.05 97 1016.5
20260902235312 81 57 2.0 3.0 0.00 0.05 0.05 97 1016.5
20260902234811 81 63 2.0 2.0 0.00 0.05 0.05 97 1016.5
20260902234306 81 55 3.0 3.0 0.00 0.05 0.05 97 1016.5
20260902233805 81 36 3.0 3.0 0.00 0.05 0.05 97 1016.5
20260902233304 81 60 2.0 3.0 0.00 0.05 0.05 97 1016.2
20260902232803 81 53 3.0 5.0 0.00 0.05 0.05 97 1016.2
20260902232258 81 55 4.0 5.0 0.00 0.05 0.05 97 1016.2
20260902231757 81 66 3.0 3.0 0.00 0.05 0.05 97 1016.2
20260902231252 81 74 3.0 3.0 0.00 0.05 0.05 97 1016.2
20260902230747 81 44 2.0 3.0 0.00 0.05 0.05 97 1016.2
20260902230246 81 36 2.0 2.0 0.00 0.05 0.05 97 1015.8
20260902225741 81 60 2.0 3.0 0.00 0.05 0.05 97 1015.8
20260902225236 81 23 2.0 2.0 0.00 0.05 0.05 97 1016.2
20260902224735 80 119 1.0 1.0 0.00 0.05 0.05 97 1015.8
20260902224230 80 47 1.0 1.0 0.00 0.05 0.05 97 1015.8
20260902223726 80 43 1.0 2.0 0.00 0.05 0.05 97 1015.8
20260902223225 80 58 2.0 2.0 0.00 0.05 0.05 97 1016.2
20260902222724 80 70 2.0 3.0 0.00 0.05 0.05 96 1015.8
20260902222219 81 151 3.0 3.0 0.00 0.05 0.05 95 1015.8
20260902221714 81 45 4.0 6.0 0.00 0.05 0.05 93 1015.8
20260902221213 82 37 5.0 7.0 0.00 0.05 0.05 92 1015.8
20260902220708 82 32 3.0 3.0 0.00 0.05 0.05 92 1015.8
20260902220203 84 51 3.0 3.0 0.00 0.05 0.05 90 1015.5
20260902215659 84 64 3.0 3.0 0.00 0.05 0.05 90 1015.5
20260902215154 84 90 2.0 2.0 0.00 0.05 0.05 92 1015.8
20260902214649 84 42 3.0 3.0 0.00 0.05 0.05 91 1015.5
20260902214148 84 68 3.0 5.0 0.00 0.05 0.05 92 1015.8
20260902213644 84 53 2.0 2.0 0.00 0.05 0.05 91 1015.8
20260902213143 84 72 2.0 2.0 0.00 0.05 0.05 91 1016.2
20260902212638 84 55 2.0 2.0 0.00 0.05 0.05 91 1016.2
20260902212135 84 47 2.0 2.0 0.00 0.05 0.05 91 1016.2
20260902211631 84 25 2.0 3.0 0.00 0.05 0.05 91 1016.2
20260902211126 84 50 3.0 5.0 0.00 0.05 0.05 91 1016.2
20260902210625 84 48 4.0 5.0 0.00 0.05 0.05 90 1016.2
20260902210120 84 46 4.0 5.0 0.00 0.05 0.05 90 1016.2
20260902205619 84 68 6.0 7.0 0.00 0.05 0.05 90 1016.2
20260902205115 84 78 2.0 2.0 0.00 0.05 0.05 89 1016.2
20260902204614 84 36 2.0 3.0 0.00 0.05 0.05 89 1016.2
20260902204109 84 48 5.0 6.0 0.00 0.05 0.05 89 1015.8
20260902203605 84 90 3.0 5.0 0.00 0.05 0.05 89 1015.8
20260902203104 84 45 6.0 7.0 0.00 0.05 0.05 89 1015.8
20260902202559 84 138 5.0 6.0 0.00 0.05 0.05 91 1015.5
20260902202056 84 74 5.0 6.0 0.00 0.05 0.05 90 1015.5
20260902201546 84 73 4.0 5.0 0.00 0.05 0.05 90 1015.8
20260902201045 84 62 3.0 5.0 0.00 0.05 0.05 90 1016.2
20260902200540 84 45 5.0 8.0 0.00 0.05 0.05 91 1016.2
20260902200037 84 56 3.0 5.0 0.00 0.05 0.05 92 1016.2
20260902195532 84 49 3.0 5.0 0.00 0.05 0.05 91 1016.2
20260902195030 84 67 5.0 7.0 0.00 0.05 0.05 92 1016.2
20260902194525 84 55 3.0 3.0 0.00 0.05 0.05 93 1016.2
20260902194020 84 55 1.0 2.0 0.00 0.05 0.05 93 1016.2
20260902193516 84 51 2.0 2.0 0.00 0.05 0.05 93 1016.2
20260902193015 83 88 2.0 2.0 0.00 0.05 0.05 92 1016.2
20260902192514 83 36 2.0 2.0 0.00 0.05 0.05 94 1016.5
20260902192013 83 71 2.0 3.0 0.00 0.05 0.05 94 1016.2
20260902191509 83 144 1.0 1.0 0.00 0.05 0.05 95 1016.5
20260902191003 83 96 2.0 2.0 0.00 0.05 0.05 94 1016.2
20260902190458 83 48 4.0 7.0 0.00 0.05 0.05 93 1016.5
20260902185954 84 56 4.0 5.0 0.00 0.05 0.05 93 1016.5
20260902185450 84 18 4.0 6.0 0.00 0.05 0.05 93 1016.9
20260902184945 84 29 6.0 7.0 0.00 0.05 0.05 92 1016.2
20260902184440 82 23 3.0 3.0 0.00 0.05 0.05 95 1016.5
20260902183936 82 28 1.0 2.0 0.00 0.05 0.05 98 1016.9
20260902183432 81 26 1.0 2.0 0.00 0.05 0.05 98 1016.9
20260902182927 81 51 1.0 2.0 0.07 0.05 0.05 97 1016.9
20260902182424 81 65 1.0 1.0 0.31 0.05 0.05 98 1016.9
20260902181919 80 43 3.0 3.0 0.24 0.04 0.04 95 1017.2
20260902181414 82 54 5.0 8.0 0.00 0.00 0.00 93 1017.2
20260902180909 84 40 8.0 11.0 0.00 0.00 0.00 88 1017.2
20260902180404 85 43 9.0 11.0 0.00 0.00 0.00 86 1016.9
20260902175900 85 14 7.0 9.0 0.00 0.00 0.00 89 1017.2
20260902175354 85 13 7.0 8.0 0.00 0.00 0.00 86 1016.9
20260902174849 86 45 7.0 8.0 0.00 0.00 0.00 88 1016.9
20260902174341 86 56 8.0 9.0 0.00 0.00 0.00 87 1017.2
20260902173831 85 19 2.0 2.0 0.00 0.00 0.00 88 1016.9
20260902173330 85 47 6.0 7.0 0.00 0.00 0.00 88 1016.9
20260902172825 85 45 6.0 7.0 0.00 0.00 0.00 87 1016.9
20260902172324 85 48 6.0 7.0 0.00 0.00 0.00 86 1017.2
20260902171814 86 29 7.0 9.0 0.00 0.00 0.00 85 1017.2
20260902171309 86 83 5.0 7.0 0.00 0.00 0.00 84 1017.2
20260902170806 87 54 5.0 7.0 0.00 0.00 0.00 83 1017.5
20260902170300 87 39 5.0 6.0 0.00 0.00 0.00 83 1017.5
20260902165756 87 84 3.0 3.0 0.00 0.00 0.00 84 1017.5
20260902165250 88 51 7.0 11.0 0.00 0.00 0.00 81 1017.5
20260902164744 86 19 5.0 6.0 0.00 0.00 0.00 82 1017.5
20260902164238 88 47 6.0 9.0 0.00 0.00 0.00 82 1017.5
20260902163733 87 28 4.0 5.0 0.00 0.00 0.00 83 1017.5
20260902163228 86 338 2.0 2.0 0.00 0.00 0.00 83 1017.9
20260902162726 87 42 5.0 7.0 0.00 0.00 0.00 83 1017.9
20260902162221 87 7 5.0 6.0 0.00 0.00 0.00 83 1017.9
20260902161716 87 137 2.0 2.0 0.00 0.00 0.00 83 1017.9
20260902161212 87 21 7.0 8.0 0.00 0.00 0.00 84 1018.2
20260902160708 86 100 2.0 3.0 0.00 0.00 0.00 86 1017.9
20260902160203 86 47 7.0 8.0 0.00 0.00 0.00 85 1017.9
20260902155701 87 32 7.0 8.0 0.00 0.00 0.00 84 1017.9
20260902155159 86 34 5.0 7.0 0.00 0.00 0.00 85 1018.2
20260902154655 86 41 4.0 6.0 0.00 0.00 0.00 85 1018.2
20260902154154 87 53 3.0 3.0 0.00 0.00 0.00 84 1018.2
20260902153649 86 51 8.0 9.0 0.00 0.00 0.00 84 1018.2
20260902153144 86 20 5.0 7.0 0.00 0.00 0.00 84 1018.2
20260902152640 86 63 7.0 9.0 0.00 0.00 0.00 84 1018.2
20260902152135 86 69 3.0 3.0 0.00 0.00 0.00 84 1018.6
20260902151630 86 32 5.0 6.0 0.00 0.00 0.00 86 1018.2
20260902151125 86 67 3.0 5.0 0.00 0.00 0.00 86 1018.6
20260902150621 85 82 5.0 7.0 0.00 0.00 0.00 86 1018.2
20260902150116 85 90 2.0 3.0 0.00 0.00 0.00 89 1018.6
20260902145616 85 49 3.0 3.0 0.00 0.00 0.00 88 1018.2
20260902145115 84 76 3.0 5.0 0.00 0.00 0.00 89 1018.2
20260902144612 85 59 5.0 7.0 0.00 0.00 0.00 87 1018.6
20260902144107 85 45 8.0 9.0 0.00 0.00 0.00 86 1018.6
20260902143602 85 44 6.0 7.0 0.00 0.00 0.00 88 1018.2
20260902143057 84 72 4.0 6.0 0.00 0.00 0.00 89 1018.6
20260902142552 84 11 6.0 7.0 0.00 0.00 0.00 87 1018.2
20260902142048 84 70 5.0 7.0 0.00 0.00 0.00 90 1018.2
20260902141542 84 42 4.0 5.0 0.00 0.00 0.00 91 1018.2
20260902141037 84 37 7.0 9.0 0.00 0.00 0.00 91 1018.2
20260902140532 84 68 3.0 3.0 0.00 0.00 0.00 90 1018.2
20260902140027 84 79 1.0 2.0 0.00 0.00 0.00 90 1017.9